SWR7DC EBBR-LSZH

Flight info

Callsign SWR7DC
Flight time 0h 46m
Altitude 31000
Route ROUSY DCT GTQ DCT BAMEV DCT BLM
Aircraft A320/M-SDE3FGHIRWY/LB1

Departure

Time 2026-04-26 14:38
Airport Brussels Airport (EBBR)

Arrival

Time 2026-04-26 15:25
Airport Zürich Airport (LSZH)
Time Latitude Longitude Altitude Speed Heading
2026-04-26 14:00 50.90382 4.48934 121 ft 0 kts 335°
2026-04-26 14:28 50.90371 4.48942 116 ft 4 kts 335°
2026-04-26 14:28 50.90346 4.48960 118 ft 4 kts 336°
2026-04-26 14:28 50.90321 4.48974 119 ft 4 kts 352°
2026-04-26 14:28 50.90301 4.48971 122 ft 3 kts 59°
2026-04-26 14:29 50.90299 4.48967 122 ft 1 kts 65°
2026-04-26 14:31 50.90304 4.48983 121 ft 6 kts 66°
2026-04-26 14:32 50.90332 4.49092 123 ft 15 kts 65°
2026-04-26 14:32 50.90378 4.49239 123 ft 16 kts 64°
2026-04-26 14:32 50.90425 4.49401 121 ft 17 kts 66°
2026-04-26 14:32 50.90450 4.49570 122 ft 13 kts 124°
2026-04-26 14:33 50.90401 4.49569 124 ft 6 kts 195°
2026-04-26 14:33 50.90351 4.49551 121 ft 9 kts 195°
2026-04-26 14:33 50.90286 4.49523 121 ft 10 kts 194°
2026-04-26 14:33 50.90223 4.49496 127 ft 8 kts 195°
2026-04-26 14:34 50.90175 4.49477 128 ft 7 kts 194°
2026-04-26 14:34 50.90121 4.49454 130 ft 10 kts 195°
2026-04-26 14:34 50.90042 4.49424 131 ft 13 kts 195°
2026-04-26 14:34 50.89948 4.49385 134 ft 13 kts 194°
2026-04-26 14:35 50.89879 4.49358 138 ft 8 kts 194°
2026-04-26 14:35 50.89821 4.49333 141 ft 8 kts 195°
2026-04-26 14:35 50.89761 4.49309 145 ft 12 kts 194°
2026-04-26 14:35 50.89690 4.49280 150 ft 8 kts 193°
2026-04-26 14:36 50.89641 4.49261 153 ft 13 kts 196°
2026-04-26 14:36 50.89527 4.49174 159 ft 18 kts 195°
2026-04-26 14:36 50.89410 4.49127 164 ft 19 kts 196°
2026-04-26 14:36 50.89314 4.49086 167 ft 2 kts 193°
2026-04-26 14:37 50.89311 4.49085 167 ft 2 kts 193°
2026-04-26 14:37 50.89276 4.49072 169 ft 10 kts 194°
2026-04-26 14:37 50.89169 4.49029 176 ft 15 kts 185°
2026-04-26 14:37 50.89159 4.49143 176 ft 13 kts 64°
2026-04-26 14:38 50.89221 4.49410 176 ft 56 kts 70°
2026-04-26 14:38 50.89438 4.50352 176 ft 123 kts 70°
2026-04-26 14:38 50.89790 4.51858 383 ft 154 kts 69°
2026-04-26 14:38 50.90024 4.52903 834 ft 153 kts 67°
2026-04-26 14:39 50.90635 4.54951 1780 ft 154 kts 62°
2026-04-26 14:39 50.91132 4.56452 2542 ft 153 kts 61°
2026-04-26 14:39 50.91628 4.57939 3215 ft 152 kts 60°
2026-04-26 14:39 50.92133 4.59460 3651 ft 164 kts 61°
2026-04-26 14:40 50.92704 4.61179 3881 ft 189 kts 61°
2026-04-26 14:40 50.93354 4.63135 4169 ft 212 kts 61°
2026-04-26 14:40 50.93935 4.65427 4522 ft 237 kts 72°
2026-04-26 14:40 50.94438 4.68052 4928 ft 260 kts 72°
2026-04-26 14:41 50.94976 4.70855 5632 ft 270 kts 72°
2026-04-26 14:41 50.95396 4.73786 6461 ft 277 kts 85°
2026-04-26 14:41 50.95208 4.76849 7247 ft 283 kts 106°
2026-04-26 14:41 50.94355 4.79679 8064 ft 287 kts 127°
2026-04-26 14:42 50.92934 4.81921 8859 ft 291 kts 141°
2026-04-26 14:42 50.91357 4.83951 9721 ft 294 kts 141°
2026-04-26 14:42 50.89739 4.85963 10484 ft 299 kts 147°
2026-04-26 14:42 50.87855 4.87534 10846 ft 317 kts 160°
2026-04-26 14:43 50.85643 4.88390 11078 ft 337 kts 175°
2026-04-26 14:43 50.83273 4.88721 11664 ft 345 kts 176°
2026-04-26 14:43 50.80861 4.89078 12353 ft 350 kts 175°
2026-04-26 14:43 50.78422 4.89461 13055 ft 355 kts 175°
2026-04-26 14:44 50.75951 4.89853 13752 ft 359 kts 175°
2026-04-26 14:44 50.74298 4.90117 14181 ft 362 kts 175°
2026-04-26 14:44 50.71774 4.90522 14790 ft 367 kts 175°
2026-04-26 14:44 50.69233 4.91058 15402 ft 371 kts 168°
2026-04-26 14:45 50.66762 4.92332 16011 ft 376 kts 156°
2026-04-26 14:45 50.65228 4.93613 16406 ft 379 kts 148°
2026-04-26 14:45 50.61870 4.98132 17379 ft 387 kts 135°
2026-04-26 14:45 50.59950 5.01132 17975 ft 391 kts 135°
2026-04-26 14:46 50.58643 5.03170 18365 ft 393 kts 135°
2026-04-26 14:46 50.56682 5.06212 18884 ft 398 kts 135°
2026-04-26 14:46 50.54701 5.09272 19398 ft 401 kts 136°
2026-04-26 14:46 50.52729 5.12313 19920 ft 404 kts 136°
2026-04-26 14:47 50.50717 5.15416 20451 ft 407 kts 136°
2026-04-26 14:47 50.48686 5.18543 20981 ft 410 kts 136°
2026-04-26 14:47 50.46638 5.21689 21503 ft 414 kts 136°
2026-04-26 14:47 50.44571 5.24861 22025 ft 417 kts 136°
2026-04-26 14:48 50.42488 5.28052 22533 ft 420 kts 136°
2026-04-26 14:48 50.40387 5.31268 23029 ft 424 kts 136°
2026-04-26 14:48 50.38271 5.34506 23505 ft 427 kts 136°
2026-04-26 14:48 50.36136 5.37772 23964 ft 430 kts 136°
2026-04-26 14:49 50.33987 5.41058 24347 ft 433 kts 136°
2026-04-26 14:49 50.31818 5.44365 24737 ft 436 kts 136°
2026-04-26 14:49 50.29640 5.47683 25110 ft 439 kts 136°
2026-04-26 14:49 50.27446 5.51021 25467 ft 441 kts 136°
2026-04-26 14:50 50.25235 5.54378 25827 ft 444 kts 136°
2026-04-26 14:50 50.23007 5.57750 26162 ft 448 kts 136°
2026-04-26 14:50 50.20764 5.61140 26506 ft 450 kts 136°
2026-04-26 14:50 50.18506 5.64548 26847 ft 453 kts 136°
2026-04-26 14:51 50.16237 5.67965 27190 ft 455 kts 136°
2026-04-26 14:51 50.13952 5.71396 27520 ft 457 kts 136°
2026-04-26 14:51 50.11660 5.74847 27856 ft 460 kts 136°
2026-04-26 14:51 50.09254 5.78149 28181 ft 462 kts 143°
2026-04-26 14:52 50.06554 5.80858 28498 ft 463 kts 153°
2026-04-26 14:52 50.03607 5.82880 28796 ft 464 kts 162°
2026-04-26 14:52 50.00538 5.84456 29077 ft 466 kts 163°
2026-04-26 14:52 49.97451 5.86031 29381 ft 468 kts 163°
2026-04-26 14:53 49.94352 5.87621 29671 ft 470 kts 163°
2026-04-26 14:53 49.91241 5.89223 29949 ft 472 kts 163°
2026-04-26 14:53 49.88117 5.90836 30234 ft 474 kts 163°
2026-04-26 14:53 49.84975 5.92458 30472 ft 477 kts 163°
2026-04-26 14:54 49.81821 5.94087 30698 ft 478 kts 163°
2026-04-26 14:54 49.78657 5.95718 30911 ft 480 kts 163°
2026-04-26 14:54 49.75487 5.97348 31129 ft 481 kts 163°
2026-04-26 14:54 49.72307 5.98975 31378 ft 482 kts 163°
2026-04-26 14:55 49.69125 6.00599 31669 ft 481 kts 163°
2026-04-26 14:55 49.65950 6.02215 31964 ft 481 kts 163°
2026-04-26 14:55 49.62775 6.03828 32267 ft 480 kts 163°
2026-04-26 14:55 49.59603 6.05438 32557 ft 480 kts 163°
2026-04-26 14:56 49.56431 6.07046 32820 ft 480 kts 163°
2026-04-26 14:56 49.53260 6.08649 33094 ft 480 kts 163°
2026-04-26 14:56 49.50108 6.10328 33374 ft 480 kts 159°
2026-04-26 14:56 49.47154 6.12562 33647 ft 481 kts 149°
2026-04-26 14:57 49.44404 6.15487 33906 ft 481 kts 141°
2026-04-26 14:57 49.41809 6.18733 34172 ft 481 kts 140°
2026-04-26 14:57 49.39210 6.21973 34414 ft 481 kts 141°
2026-04-26 14:57 49.36606 6.25200 34674 ft 481 kts 141°
2026-04-26 14:58 49.34010 6.28405 34998 ft 477 kts 141°
2026-04-26 14:58 49.31428 6.31584 35190 ft 476 kts 141°
2026-04-26 14:58 49.28853 6.34751 35233 ft 472 kts 141°
2026-04-26 14:59 49.23752 6.41009 35229 ft 469 kts 141°
2026-04-26 14:59 49.18664 6.47246 35231 ft 469 kts 141°
2026-04-26 15:00 49.13574 6.53471 35228 ft 469 kts 141°
2026-04-26 15:00 49.08475 6.59687 35232 ft 469 kts 141°
2026-04-26 15:01 49.03366 6.65886 35251 ft 469 kts 142°
2026-04-26 15:01 48.98088 6.71662 35248 ft 466 kts 153°
2026-04-26 15:02 48.92138 6.75488 35243 ft 464 kts 160°
2026-04-26 15:02 48.86124 6.79048 35222 ft 464 kts 160°
2026-04-26 15:03 48.80118 6.82604 35222 ft 464 kts 160°
2026-04-26 15:03 48.74106 6.86157 35223 ft 464 kts 160°
2026-04-26 15:04 48.68096 6.89700 35219 ft 463 kts 160°
2026-04-26 15:04 48.62081 6.93222 35220 ft 464 kts 160°
2026-04-26 15:05 48.56068 6.96733 35231 ft 463 kts 161°
2026-04-26 15:05 48.50103 7.00215 35231 ft 462 kts 160°
2026-04-26 15:06 48.44116 7.03705 35231 ft 461 kts 161°
2026-04-26 15:06 48.38132 7.07191 35196 ft 462 kts 161°
2026-04-26 15:07 48.29109 7.12414 35184 ft 464 kts 161°
2026-04-26 15:07 48.23080 7.15890 35188 ft 465 kts 161°
2026-04-26 15:08 48.17038 7.19361 35179 ft 465 kts 161°
2026-04-26 15:08 48.10999 7.22830 35189 ft 465 kts 161°
2026-04-26 15:09 48.04994 7.26279 35108 ft 464 kts 161°
2026-04-26 15:09 48.01988 7.28003 33836 ft 465 kts 161°
2026-04-26 15:09 47.98954 7.29737 32407 ft 467 kts 161°
2026-04-26 15:10 47.95931 7.31460 31253 ft 464 kts 161°
2026-04-26 15:10 47.93896 7.32618 30527 ft 461 kts 161°
2026-04-26 15:10 47.89957 7.34858 29037 ft 454 kts 161°
2026-04-26 15:10 47.87025 7.36523 28018 ft 448 kts 161°
2026-04-26 15:11 47.84138 7.38163 27046 ft 440 kts 161°
2026-04-26 15:11 47.81296 7.39779 26115 ft 433 kts 161°
2026-04-26 15:11 47.78504 7.41363 25218 ft 427 kts 161°
2026-04-26 15:11 47.75752 7.42923 24337 ft 420 kts 161°
2026-04-26 15:12 47.73040 7.44456 23468 ft 414 kts 161°
2026-04-26 15:12 47.70361 7.45967 22535 ft 408 kts 161°
2026-04-26 15:12 47.67734 7.47475 21655 ft 402 kts 158°
2026-04-26 15:12 47.65340 7.49572 20822 ft 399 kts 143°
2026-04-26 15:13 47.63378 7.52436 19997 ft 395 kts 128°
2026-04-26 15:13 47.61974 7.55855 19458 ft 383 kts 114°
2026-04-26 15:13 47.61064 7.59501 18988 ft 373 kts 109°
2026-04-26 15:13 47.60222 7.63102 18530 ft 368 kts 110°
2026-04-26 15:14 47.59379 7.66671 18020 ft 365 kts 110°
2026-04-26 15:14 47.58544 7.70200 17574 ft 363 kts 110°
2026-04-26 15:14 47.57720 7.73684 17117 ft 363 kts 110°
2026-04-26 15:14 47.56888 7.77206 16672 ft 362 kts 110°
2026-04-26 15:15 47.56061 7.80718 16227 ft 361 kts 109°
2026-04-26 15:15 47.55226 7.84270 15779 ft 360 kts 109°
2026-04-26 15:15 47.54467 7.87742 15139 ft 360 kts 102°
2026-04-26 15:15 47.54326 7.91432 14236 ft 360 kts 82°
2026-04-26 15:16 47.55007 7.94930 13499 ft 351 kts 63°
2026-04-26 15:16 47.56116 7.98118 12655 ft 346 kts 61°
2026-04-26 15:16 47.57231 8.01251 11937 ft 339 kts 61°
2026-04-26 15:16 47.58295 8.04235 11735 ft 318 kts 62°
2026-04-26 15:17 47.59305 8.07085 11241 ft 308 kts 62°
2026-04-26 15:17 47.59964 8.08945 10756 ft 309 kts 62°
2026-04-26 15:17 47.61309 8.12733 9656 ft 312 kts 62°
2026-04-26 15:17 47.62495 8.15407 8806 ft 311 kts 47°
2026-04-26 15:18 47.63957 8.17713 8222 ft 301 kts 46°
2026-04-26 15:18 47.65360 8.19926 7800 ft 288 kts 46°
2026-04-26 15:18 47.66683 8.22056 7347 ft 276 kts 51°
2026-04-26 15:18 47.67456 8.24574 6881 ft 267 kts 84°
2026-04-26 15:19 47.67149 8.27203 6474 ft 258 kts 117°
2026-04-26 15:19 47.66016 8.29178 6132 ft 247 kts 135°
2026-04-26 15:19 47.64786 8.30855 5804 ft 231 kts 135°
2026-04-26 15:19 47.63650 8.32410 5504 ft 214 kts 135°
2026-04-26 15:20 47.62580 8.33884 5238 ft 208 kts 135°
2026-04-26 15:20 47.61520 8.35346 4969 ft 207 kts 135°
2026-04-26 15:20 47.60472 8.36788 4702 ft 202 kts 135°
2026-04-26 15:20 47.59492 8.38135 4443 ft 188 kts 135°
2026-04-26 15:21 47.58569 8.39402 4186 ft 175 kts 133°
2026-04-26 15:21 47.57704 8.40591 3962 ft 166 kts 134°
2026-04-26 15:21 47.56879 8.41724 3760 ft 154 kts 134°
2026-04-26 15:21 47.56110 8.42780 3563 ft 148 kts 134°
2026-04-26 15:22 47.55364 8.43804 3361 ft 145 kts 133°
2026-04-26 15:22 47.54631 8.44811 3171 ft 143 kts 132°
2026-04-26 15:22 47.53902 8.45811 2978 ft 143 kts 133°
2026-04-26 15:22 47.53176 8.46806 2788 ft 142 kts 133°
2026-04-26 15:23 47.52456 8.47793 2602 ft 141 kts 133°
2026-04-26 15:23 47.51734 8.48782 2411 ft 142 kts 133°
2026-04-26 15:23 47.51006 8.49779 2214 ft 143 kts 133°
2026-04-26 15:23 47.50288 8.50761 2015 ft 143 kts 134°
2026-04-26 15:24 47.49563 8.51749 1835 ft 141 kts 135°
2026-04-26 15:24 47.48857 8.52737 1627 ft 140 kts 135°
2026-04-26 15:24 47.48139 8.53704 1444 ft 139 kts 135°
2026-04-26 15:24 47.47486 8.54597 1393 ft 108 kts 137°
2026-04-26 15:25 47.47061 8.55177 1388 ft 58 kts 137°
2026-04-26 15:25 47.46889 8.55417 1394 ft 48 kts 136°
2026-04-26 15:25 47.46612 8.55669 1397 ft 27 kts 164°
2026-04-26 15:25 47.46456 8.55726 1399 ft 17 kts 167°
2026-04-26 15:26 47.46353 8.55798 1403 ft 16 kts 137°
2026-04-26 15:26 47.46274 8.55905 1406 ft 15 kts 137°
2026-04-26 15:26 47.46204 8.55993 1408 ft 12 kts 151°
2026-04-26 15:26 47.46122 8.55996 1407 ft 11 kts 186°
2026-04-26 15:27 47.46054 8.55985 1407 ft 9 kts 186°
2026-04-26 15:27 47.45968 8.55969 1406 ft 14 kts 191°
2026-04-26 15:27 47.45880 8.55924 1415 ft 12 kts 198°
2026-04-26 15:27 47.45812 8.55891 1413 ft 10 kts 198°
2026-04-26 15:28 47.45737 8.55870 1409 ft 12 kts 185°
2026-04-26 15:28 47.45643 8.55857 1408 ft 14 kts 186°
2026-04-26 15:28 47.45553 8.55842 1408 ft 13 kts 186°
2026-04-26 15:28 47.45496 8.55918 1407 ft 14 kts 91°
2026-04-26 15:29 47.45488 8.56032 1414 ft 11 kts 96°
2026-04-26 15:29 47.45468 8.56125 1412 ft 9 kts 157°
2026-04-26 15:29 47.45409 8.56118 1407 ft 2 kts 186°
2026-04-26 15:30 47.45406 8.56118 1407 ft 0 kts 186°